M I D A S
Marine Information and Data Acquisition System
Tripno 873 of the Zeeleeuw from 2005-03-30 06:33:14 to 2005-03-30 12:54:34
Back to CruiseResearch ActivitiesStationsMapUnderway DataData graphs

EquipmentUnitsComments
TimeDGPSUTC
LatitudeDGPSDM.mWGS84
LongitudeDGPSDM.mWGS84
SpeedMeteo Stationm/sRelative wind speed
DirectionMeteo StationdegRelative wind direction
TemperatureMeteo Stationdeg CelciusAir temperature
PressureMeteo StationPaAtmospheric pressure
HumidityMeteo Station%Relative humidity
Missing or incorrect values are displayed as -999
Metereological data collected by the RV Zeeleeuw from 2005-03-30 06:33:59 to 2005-03-30 13:01:34
                                                                                    Next 1000 lines
Time Latitude Longitude Speed Direction Temperature Pressure Humidity
2005-03-30 06:34:09 51°13.596 2°56.096 0.6 353 10.2 101080 100
2005-03-30 06:34:14 51°13.598 2°56.093 0.3 353 10.2 101080 100
2005-03-30 06:34:19 51°13.599 2°56.088 0.2 353 10.2 101080 100
2005-03-30 06:34:24 51°13.6 2°56.083 0.1 353 10.2 101080 100
2005-03-30 06:34:30 51°13.602 2°56.077 -999 352 10.2 101080 100
2005-03-30 06:34:34 51°13.603 2°56.072 0.1 324 10.2 101080 100
2005-03-30 06:34:40 51°13.605 2°56.065 0.1 301 10.2 101080 100
2005-03-30 06:34:45 51°13.607 2°56.059 0.3 227 10.2 101080 100
2005-03-30 06:34:50 51°13.609 2°56.052 0.3 226 10.2 101080 100
2005-03-30 06:34:54 51°13.611 2°56.045 0.5 226 10.2 101080 100
2005-03-30 06:35:00 51°13.613 2°56.036 0.6 225 10.2 101080 100
2005-03-30 06:35:05 51°13.615 2°56.029 0.5 221 10.2 101080 100
2005-03-30 06:35:10 51°13.617 2°56.021 0.6 220 10.2 101080 100
2005-03-30 06:35:14 51°13.619 2°56.013 0.5 212 10.2 101080 100
2005-03-30 06:35:20 51°13.622 2°56.004 0.5 204 10.2 101080 100
2005-03-30 06:35:25 51°13.624 2°55.995 0.2 200 10.2 101080 100
2005-03-30 06:35:29 51°13.626 2°55.986 0.3 200 10.2 101080 100
2005-03-30 06:35:35 51°13.63 2°55.976 1.2 201 10.2 101080 100
2005-03-30 06:35:40 51°13.633 2°55.967 1.1 201 10.2 101080 100
2005-03-30 06:35:45 51°13.637 2°55.957 1.2 209 10.2 101080 100
2005-03-30 06:35:49 51°13.639 2°55.95 1.4 209 10.2 101080 100
2005-03-30 06:35:55 51°13.644 2°55.938 1.6 205 10.2 101080 100
2005-03-30 06:35:59 51°13.648 2°55.93 1.6 206 10.2 101080 100
2005-03-30 06:36:05 51°13.653 2°55.918 1.9 206 10.2 101080 100
2005-03-30 06:36:09 51°13.656 2°55.912 1.5 207 10.2 101080 100
2005-03-30 06:36:14 51°13.66 2°55.901 1.7 211 10.2 101080 100
2005-03-30 06:36:20 51°13.664 2°55.891 1.4 211 10.2 101080 100
2005-03-30 06:36:24 51°13.668 2°55.882 1.8 219 10.2 101080 100
2005-03-30 06:36:30 51°13.672 2°55.871 1.6 219 10.2 101090 100
2005-03-30 06:36:34 51°13.675 2°55.864 1.8 215 10.2 101090 100
2005-03-30 06:36:40 51°13.679 2°55.853 1.8 214 10.2 101080 100
2005-03-30 06:36:45 51°13.683 2°55.844 1.5 214 10.2 101080 100
2005-03-30 06:36:50 51°13.686 2°55.834 1.4 215 10.2 101090 100
2005-03-30 06:36:55 51°13.689 2°55.825 1.5 216 10.2 101090 100
2005-03-30 06:37:00 51°13.691 2°55.815 1.6 216 10.2 101090 100
2005-03-30 06:37:05 51°13.694 2°55.805 1.2 216 10.2 101090 100
2005-03-30 06:37:09 51°13.696 2°55.796 1.1 216 10.2 101090 100
2005-03-30 06:37:14 51°13.698 2°55.787 0.7 216 10.2 101090 100
2005-03-30 06:37:20 51°13.7 2°55.776 0.6 217 10.2 101080 100
2005-03-30 06:37:25 51°13.701 2°55.77 0.4 228 10.2 101080 100
2005-03-30 06:37:30 51°13.702 2°55.765 0.3 232 10.2 101090 100
2005-03-30 06:37:35 51°13.703 2°55.761 0.5 287 10.2 101090 100
2005-03-30 06:37:40 51°13.704 2°55.759 0.5 302 10.2 101090 100
2005-03-30 06:37:45 51°13.705 2°55.759 1.4 16 10.2 101090 100
2005-03-30 06:37:49 51°13.706 2°55.759 1.4 18 10.2 101090 100
2005-03-30 06:37:55 51°13.707 2°55.761 1.5 23 10.2 101090 100
2005-03-30 06:38:00 51°13.709 2°55.762 1.4 23 10.2 101080 100
2005-03-30 06:38:05 51°13.709 2°55.762 1.2 35 10.2 101080 100
2005-03-30 06:38:09 51°13.71 2°55.762 1 37 10.2 101090 100
2005-03-30 06:38:15 51°13.71 2°55.761 0.7 56 10.2 101090 100
2005-03-30 06:38:20 51°13.71 2°55.759 0.7 57 10.2 101080 100
2005-03-30 06:38:25 51°13.709 2°55.756 0.5 87 10.2 101080 100
2005-03-30 06:38:29 51°13.709 2°55.754 0.5 94 10.2 101090 100
2005-03-30 06:38:34 51°13.707 2°55.75 0.7 132 10.2 101090 100
2005-03-30 06:38:39 51°13.706 2°55.747 0.8 132 10.2 101090 100
2005-03-30 06:38:45 51°13.704 2°55.743 0.9 135 10.2 101090 100
2005-03-30 06:38:50 51°13.703 2°55.741 0.8 136 10.2 101090 100
2005-03-30 06:38:54 51°13.704 2°55.74 0.2 136 10.2 101090 100
2005-03-30 06:38:59 51°13.704 2°55.739 0.1 135 10.2 101090 100
2005-03-30 06:39:05 51°13.707 2°55.739 0.1 124 10.2 101090 100
2005-03-30 06:39:10 51°13.71 2°55.739 -999 118 10.2 101090 100
2005-03-30 06:39:14 51°13.713 2°55.738 -999 63 10.2 101090 100
2005-03-30 06:39:20 51°13.717 2°55.736 -999 63 10.2 101090 100
2005-03-30 06:39:24 51°13.721 2°55.734 -999 53 10.2 101090 100
2005-03-30 06:39:30 51°13.727 2°55.73 -999 52 10.2 101090 100
2005-03-30 06:39:34 51°13.732 2°55.726 -999 40 10.2 101090 100
2005-03-30 06:39:39 51°13.737 2°55.721 -999 39 10.2 101090 100
2005-03-30 06:39:44 51°13.743 2°55.715 -999 28 10.2 101090 100
2005-03-30 06:39:49 51°13.748 2°55.71 0.1 28 10.2 101090 100
2005-03-30 06:39:54 51°13.755 2°55.703 2.3 18 10.2 101090 100
2005-03-30 06:40:00 51°13.762 2°55.696 2.3 16 10.2 101090 100
2005-03-30 06:40:04 51°13.768 2°55.69 2.8 15 10.2 101090 100
2005-03-30 06:40:09 51°13.775 2°55.684 2.8 14 10.2 101090 100
2005-03-30 06:40:14 51°13.783 2°55.676 2.9 19 10.2 101090 100
2005-03-30 06:40:20 51°13.792 2°55.668 2.8 16 10.2 101090 100
2005-03-30 06:40:25 51°13.8 2°55.66 3.1 12 10.2 101090 100
2005-03-30 06:40:29 51°13.807 2°55.653 3.2 12 10.2 101080 100
2005-03-30 06:40:34 51°13.817 2°55.644 3.1 15 10.2 101080 100
2005-03-30 06:40:39 51°13.825 2°55.637 2.9 19 10.2 101090 100
2005-03-30 06:40:45 51°13.836 2°55.628 2.9 12 10.2 101090 100
2005-03-30 06:40:49 51°13.844 2°55.621 3.1 20 10.2 101090 100
2005-03-30 06:40:55 51°13.856 2°55.611 3.1 17 10.2 101090 100
2005-03-30 06:40:58 51°13.863 2°55.606 3.2 20 10.2 101090 100
2005-03-30 06:41:05 51°13.876 2°55.595 3.5 12 10.2 101090 100
2005-03-30 06:41:09 51°13.884 2°55.589 3.6 13 10.2 101090 100
2005-03-30 06:41:14 51°13.896 2°55.581 3.6 9 10.2 101090 100
2005-03-30 06:41:20 51°13.907 2°55.573 3.5 16 10.2 101090 100
2005-03-30 06:41:24 51°13.917 2°55.566 3.4 18 10.2 101090 100
2005-03-30 06:41:30 51°13.929 2°55.558 3.2 16 10.2 101090 100
2005-03-30 06:41:34 51°13.938 2°55.551 3.3 17 10.2 101090 100
2005-03-30 06:41:38 51°13.947 2°55.545 3.5 13 10.2 101090 100
2005-03-30 06:41:44 51°13.96 2°55.536 3.4 22 10.2 101090 100
2005-03-30 06:41:49 51°13.97 2°55.529 3.3 20 10.2 101080 100
2005-03-30 06:41:54 51°13.981 2°55.521 3 15 10.2 101080 100
2005-03-30 06:41:58 51°13.99 2°55.514 3.3 11 10.2 101090 100
2005-03-30 06:42:05 51°14.004 2°55.504 3.4 9 10.2 101090 100
2005-03-30 06:42:09 51°14.014 2°55.497 3.7 12 10.2 101090 100
2005-03-30 06:42:14 51°14.025 2°55.489 3.6 11 10.2 101090 100
2005-03-30 06:42:19 51°14.036 2°55.481 3.5 14 10.2 101090 100
2005-03-30 06:42:25 51°14.048 2°55.473 3.5 17 10.2 101090 100
2005-03-30 06:42:29 51°14.056 2°55.466 3.4 18 10.2 101090 100
2005-03-30 06:42:34 51°14.068 2°55.457 3.3 16 10.2 101090 100
2005-03-30 06:42:38 51°14.077 2°55.451 3.5 16 10.2 101090 100
2005-03-30 06:42:45 51°14.091 2°55.441 3.1 16 10.2 101090 100
2005-03-30 06:42:49 51°14.101 2°55.434 3.1 15 10.2 101090 100
2005-03-30 06:42:54 51°14.112 2°55.425 3.4 14 10.2 101090 100
2005-03-30 06:42:59 51°14.123 2°55.417 3.5 14 10.2 101090 100
2005-03-30 06:43:05 51°14.137 2°55.406 3.7 14 10.2 101090 100
2005-03-30 06:43:09 51°14.148 2°55.396 3.7 12 10.1 101090 100
2005-03-30 06:43:14 51°14.161 2°55.386 3.6 14 10.1 101090 100
2005-03-30 06:43:20 51°14.175 2°55.372 3.6 15 10.2 101090 100
2005-03-30 06:43:24 51°14.185 2°55.362 4 12 10.2 101090 100
2005-03-30 06:43:28 51°14.195 2°55.353 4.2 13 10.2 101090 100
2005-03-30 06:43:34 51°14.21 2°55.337 4.2 14 10.2 101090 100
2005-03-30 06:43:39 51°14.222 2°55.322 4 11 10.1 101090 100
2005-03-30 06:43:45 51°14.234 2°55.306 3.9 10 10.1 101090 100
2005-03-30 06:43:50 51°14.245 2°55.29 4 11 10.1 101090 100
2005-03-30 06:43:54 51°14.255 2°55.275 4.1 9 10.1 101090 100
2005-03-30 06:43:59 51°14.265 2°55.258 4.2 11 10.1 101090 100
2005-03-30 06:44:04 51°14.275 2°55.24 4.4 8 10.1 101090 100
2005-03-30 06:44:09 51°14.285 2°55.222 4.4 9 10.1 101090 100
2005-03-30 06:44:14 51°14.295 2°55.203 4.3 9 10.1 101090 100
2005-03-30 06:44:19 51°14.304 2°55.183 4.3 9 10.1 101090 100
2005-03-30 06:44:25 51°14.314 2°55.161 4.6 8 10.1 101090 100
2005-03-30 06:44:29 51°14.323 2°55.143 4.5 7 10.1 101090 100
2005-03-30 06:44:34 51°14.332 2°55.122 4.5 7 10.1 101090 100
2005-03-30 06:44:39 51°14.341 2°55.1 4.5 6 10.1 101090 100
2005-03-30 06:44:45 51°14.351 2°55.077 4.9 10 10.1 101090 100
2005-03-30 06:44:49 51°14.36 2°55.057 4.4 6 10.1 101100 100
2005-03-30 06:44:54 51°14.369 2°55.035 4.6 7 10.1 101100 100
2005-03-30 06:44:59 51°14.377 2°55.015 4.9 8 10.1 101090 100
2005-03-30 06:45:04 51°14.388 2°54.992 2.6 4 10.1 101090 100
2005-03-30 06:45:09 51°14.397 2°54.972 5 6 10.1 101090 100
2005-03-30 06:45:14 51°14.409 2°54.948 5 8 10.1 101090 100
2005-03-30 06:45:19 51°14.422 2°54.928 5.2 9 10.1 101100 100
2005-03-30 06:45:25 51°14.436 2°54.907 5.2 10 10.1 101100 100
2005-03-30 06:45:29 51°14.449 2°54.891 5.4 9 10.1 101090 100
2005-03-30 06:45:34 51°14.463 2°54.876 5.5 10 10.1 101090 100
2005-03-30 06:45:39 51°14.478 2°54.863 5.6 10 10.1 101090 100
2005-03-30 06:45:45 51°14.496 2°54.847 5.8 12 10.1 101090 100
2005-03-30 06:45:50 51°14.512 2°54.834 6 12 10.1 101090 100
2005-03-30 06:45:54 51°14.527 2°54.823 5.9 14 10.1 101090 100
2005-03-30 06:45:59 51°14.544 2°54.81 6 15 10.1 101100 100
2005-03-30 06:46:05 51°14.562 2°54.796 5.9 14 10.1 101100 100
2005-03-30 06:46:10 51°14.579 2°54.784 5.7 18 10.1 101090 100
2005-03-30 06:46:14 51°14.594 2°54.773 6.1 15 10.1 101090 100
2005-03-30 06:46:20 51°14.613 2°54.759 6 15 10.1 101100 100
2005-03-30 06:46:25 51°14.629 2°54.746 6.1 16 10.1 101100 100
2005-03-30 06:46:29 51°14.643 2°54.735 6.2 16 10.1 101090 100
2005-03-30 06:46:35 51°14.663 2°54.719 6.3 16 10.1 101090 100
2005-03-30 06:46:40 51°14.679 2°54.705 6.5 16 10.1 101090 100
2005-03-30 06:46:44 51°14.694 2°54.692 6.2 17 10.1 101090 100
2005-03-30 06:46:49 51°14.711 2°54.677 6.2 17 10 101100 100
2005-03-30 06:46:54 51°14.728 2°54.663 6.5 17 10 101100 100
2005-03-30 06:46:59 51°14.745 2°54.648 6.2 18 10.1 101100 100
2005-03-30 06:47:05 51°14.763 2°54.633 6.6 18 10.1 101100 100
2005-03-30 06:47:09 51°14.777 2°54.622 6.5 18 10.1 101100 100
2005-03-30 06:47:14 51°14.796 2°54.606 7.2 18 10.1 101100 100
2005-03-30 06:47:19 51°14.813 2°54.593 7.4 18 10 101100 100
2005-03-30 06:47:25 51°14.832 2°54.578 7.3 18 10 101100 100
2005-03-30 06:47:29 51°14.845 2°54.567 6.8 20 10 101100 100
2005-03-30 06:47:34 51°14.864 2°54.552 7 20 10 101100 100
2005-03-30 06:47:39 51°14.881 2°54.538 7.4 20 9.9 101090 100
2005-03-30 06:47:44 51°14.898 2°54.524 7.4 19 9.9 101090 100
2005-03-30 06:47:48 51°14.912 2°54.513 7.4 19 9.9 101100 100
2005-03-30 06:47:54 51°14.932 2°54.496 7.2 20 9.9 101100 100
2005-03-30 06:48:00 51°14.951 2°54.481 7.5 20 9.8 101100 100
2005-03-30 06:48:04 51°14.966 2°54.468 7.2 21 9.8 101100 100
2005-03-30 06:48:09 51°14.981 2°54.456 7.3 21 9.8 101100 100
2005-03-30 06:48:14 51°15 2°54.442 7.3 20 9.8 101100 100
2005-03-30 06:48:19 51°15.015 2°54.43 6.9 21 9.8 101100 100
2005-03-30 06:48:24 51°15.033 2°54.416 6.9 22 9.8 101100 100
2005-03-30 06:48:29 51°15.048 2°54.404 6.9 22 9.8 101100 100
2005-03-30 06:48:34 51°15.067 2°54.388 6.7 21 9.8 101100 100
2005-03-30 06:48:39 51°15.083 2°54.375 6.9 21 9.7 101100 100
2005-03-30 06:48:45 51°15.102 2°54.358 6.8 21 9.7 101100 100
2005-03-30 06:48:49 51°15.117 2°54.344 6.3 21 9.7 101100 100
2005-03-30 06:48:54 51°15.133 2°54.33 6.8 21 9.7 101100 100
2005-03-30 06:48:59 51°15.15 2°54.314 6.4 20 9.7 101100 100
2005-03-30 06:49:05 51°15.168 2°54.297 6.7 20 9.7 101100 100
2005-03-30 06:49:09 51°15.181 2°54.285 6.3 20 9.7 101100 100
2005-03-30 06:49:14 51°15.199 2°54.269 6.5 21 9.7 101100 100
2005-03-30 06:49:19 51°15.217 2°54.254 6.5 21 9.7 101100 100
2005-03-30 06:49:25 51°15.236 2°54.239 6.5 21 9.7 101100 100
2005-03-30 06:49:29 51°15.249 2°54.228 6.3 22 9.7 101110 100
2005-03-30 06:49:34 51°15.268 2°54.213 6.3 22 9.7 101110 100
2005-03-30 06:49:39 51°15.286 2°54.2 6.3 20 9.7 101100 100
2005-03-30 06:49:45 51°15.305 2°54.185 6.4 22 9.7 101100 100
2005-03-30 06:49:49 51°15.321 2°54.173 6 20 9.7 101100 100
2005-03-30 06:49:54 51°15.338 2°54.159 6 21 9.7 101100 100
2005-03-30 06:49:59 51°15.355 2°54.145 6.1 21 9.7 101100 100
2005-03-30 06:50:05 51°15.374 2°54.129 6.2 20 9.7 101100 100
2005-03-30 06:50:09 51°15.387 2°54.117 5.8 21 9.7 101100 100
2005-03-30 06:50:14 51°15.406 2°54.101 5.5 20 9.7 101100 100
2005-03-30 06:50:19 51°15.423 2°54.086 6.2 19 9.7 101100 100
2005-03-30 06:50:24 51°15.44 2°54.071 5.8 19 9.7 101100 100
2005-03-30 06:50:29 51°15.457 2°54.056 6.1 19 9.7 101100 100
2005-03-30 06:50:34 51°15.474 2°54.042 6 18 9.7 101100 100
2005-03-30 06:50:38 51°15.488 2°54.03 5.6 19 9.7 101110 100
2005-03-30 06:50:44 51°15.509 2°54.012 5.9 17 9.7 101110 100
2005-03-30 06:50:48 51°15.522 2°54.001 5.9 18 9.7 101100 100
2005-03-30 06:50:54 51°15.543 2°53.983 5.5 18 9.7 101100 100
2005-03-30 06:50:59 51°15.558 2°53.97 6.1 17 9.7 101100 100
2005-03-30 06:51:04 51°15.577 2°53.955 5.8 17 9.7 101100 100
2005-03-30 06:51:09 51°15.592 2°53.942 5.9 17 9.6 101110 100
2005-03-30 06:51:14 51°15.611 2°53.926 6 17 9.6 101110 100
2005-03-30 06:51:20 51°15.63 2°53.91 5.7 16 9.6 101100 100
2005-03-30 06:51:24 51°15.645 2°53.897 5.8 15 9.6 101100 100
2005-03-30 06:51:29 51°15.66 2°53.884 5.6 16 9.6 101100 100
2005-03-30 06:51:34 51°15.679 2°53.868 6 17 9.6 101100 100
2005-03-30 06:51:40 51°15.697 2°53.852 5.8 16 9.6 101100 100
2005-03-30 06:51:45 51°15.714 2°53.838 6.1 16 9.6 101100 100
2005-03-30 06:51:49 51°15.729 2°53.825 5.6 15 9.6 101100 100
2005-03-30 06:51:54 51°15.745 2°53.812 5.7 17 9.6 101100 100
2005-03-30 06:51:59 51°15.763 2°53.797 6 16 9.6 101100 100
2005-03-30 06:52:05 51°15.782 2°53.781 6.2 16 9.6 101100 100
2005-03-30 06:52:08 51°15.793 2°53.772 5.8 16 9.6 101110 100
2005-03-30 06:52:14 51°15.813 2°53.754 5.7 17 9.6 101110 100
2005-03-30 06:52:19 51°15.83 2°53.74 5.9 16 9.5 101100 100
2005-03-30 06:52:25 51°15.848 2°53.724 5.7 17 9.5 101100 100
2005-03-30 06:52:29 51°15.864 2°53.712 6.1 17 9.5 101100 100
2005-03-30 06:52:34 51°15.88 2°53.698 5.9 17 9.5 101100 100
2005-03-30 06:52:39 51°15.897 2°53.684 6 17 9.5 101100 100
2005-03-30 06:52:44 51°15.914 2°53.67 5.7 17 9.5 101100 100
2005-03-30 06:52:49 51°15.931 2°53.655 6 18 9.5 101100 100
2005-03-30 06:52:54 51°15.948 2°53.641 6.1 17 9.5 101100 100
2005-03-30 06:52:59 51°15.965 2°53.627 6 17 9.5 101100 100
2005-03-30 06:53:05 51°15.983 2°53.611 6 17 9.5 101100 100
2005-03-30 06:53:09 51°15.996 2°53.599 6.3 18 9.4 101100 100
2005-03-30 06:53:14 51°16.015 2°53.584 6 19 9.4 101100 100
2005-03-30 06:53:18 51°16.029 2°53.572 6.2 19 9.4 101100 100
2005-03-30 06:53:24 51°16.049 2°53.556 6.4 19 9.4 101100 100
2005-03-30 06:53:29 51°16.064 2°53.543 6.7 19 9.4 101100 100
2005-03-30 06:53:34 51°16.083 2°53.528 6.7 19 9.4 101100 100
2005-03-30 06:53:40 51°16.101 2°53.513 6.5 20 9.3 101100 100
2005-03-30 06:53:44 51°16.116 2°53.5 6.6 20 9.3 101100 100
2005-03-30 06:53:49 51°16.133 2°53.486 6.5 20 9.3 101100 100
2005-03-30 06:53:54 51°16.15 2°53.471 6.7 20 9.3 101100 100
2005-03-30 06:53:58 51°16.164 2°53.46 6.7 21 9.3 101100 100
2005-03-30 06:54:04 51°16.184 2°53.443 6.8 21 9.3 101100 100
2005-03-30 06:54:08 51°16.198 2°53.432 6.2 22 9.3 101100 100
2005-03-30 06:54:14 51°16.218 2°53.415 6.3 21 9.3 101100 100
2005-03-30 06:54:19 51°16.235 2°53.401 6.5 21 9.3 101100 100
2005-03-30 06:54:25 51°16.254 2°53.385 6.6 21 9.3 101100 100
2005-03-30 06:54:28 51°16.266 2°53.375 6.6 22 9.3 101100 100
2005-03-30 06:54:34 51°16.286 2°53.358 6.7 23 9.3 101100 100
2005-03-30 06:54:39 51°16.302 2°53.345 6.5 22 9.3 101100 100
2005-03-30 06:54:45 51°16.322 2°53.329 6.8 22 9.3 101100 100
2005-03-30 06:54:49 51°16.338 2°53.316 6.1 23 9.3 101100 100
2005-03-30 06:54:54 51°16.355 2°53.302 6.6 22 9.3 101100 100
2005-03-30 06:54:59 51°16.371 2°53.289 6.4 23 9.3 101100 100
2005-03-30 06:55:05 51°16.391 2°53.273 6.4 22 9.3 101100 100
2005-03-30 06:55:10 51°16.408 2°53.258 6.3 23 9.2 101100 100
2005-03-30 06:55:15 51°16.426 2°53.244 6 23 9.2 101100 100
2005-03-30 06:55:19 51°16.441 2°53.231 6.6 24 9.2 101100 100
2005-03-30 06:55:24 51°16.458 2°53.217 6.5 24 9.2 101100 100
2005-03-30 06:55:29 51°16.473 2°53.205 6.4 24 9.2 101100 100
2005-03-30 06:55:35 51°16.494 2°53.187 6.4 24 9.2 101100 100
2005-03-30 06:55:38 51°16.506 2°53.178 6.3 25 9.2 101100 100
2005-03-30 06:55:45 51°16.528 2°53.159 6.4 25 9.2 101100 100
2005-03-30 06:55:49 51°16.544 2°53.146 6.1 26 9.3 101100 100
2005-03-30 06:55:54 51°16.561 2°53.132 6 26 9.3 101100 100
2005-03-30 06:55:59 51°16.578 2°53.118 6.2 26 9.3 101100 100
2005-03-30 06:56:04 51°16.595 2°53.105 5.9 28 9.3 101100 100
2005-03-30 06:56:09 51°16.611 2°53.092 5.9 27 9.3 101100 100
2005-03-30 06:56:14 51°16.629 2°53.077 6 26 9.3 101100 100
2005-03-30 06:56:20 51°16.648 2°53.061 5.9 28 9.3 101100 100
2005-03-30 06:56:24 51°16.664 2°53.049 5.8 27 9.3 101100 100
2005-03-30 06:56:29 51°16.681 2°53.035 5.8 28 9.3 101090 100
2005-03-30 06:56:34 51°16.698 2°53.021 5.9 28 9.3 101090 100
2005-03-30 06:56:39 51°16.716 2°53.007 5.7 27 9.3 101100 100
2005-03-30 06:56:44 51°16.733 2°52.993 5.6 28 9.3 101100 100
2005-03-30 06:56:49 51°16.75 2°52.979 5.9 29 9.3 101110 100
2005-03-30 06:56:54 51°16.767 2°52.966 5.6 28 9.3 101110 100
2005-03-30 06:56:59 51°16.783 2°52.953 5.8 27 9.3 101100 100
2005-03-30 06:57:05 51°16.803 2°52.937 5.7 28 9.3 101100 100
2005-03-30 06:57:10 51°16.82 2°52.924 5.7 27 9.3 101110 100
2005-03-30 06:57:14 51°16.836 2°52.911 5.5 27 9.3 101110 100
2005-03-30 06:57:19 51°16.851 2°52.898 5.6 27 9.3 101100 100
2005-03-30 06:57:24 51°16.868 2°52.883 5.8 28 9.3 101100 100
2005-03-30 06:57:30 51°16.887 2°52.867 5.1 28 9.3 101100 100
2005-03-30 06:57:34 51°16.902 2°52.855 5.4 29 9.3 101100 100
2005-03-30 06:57:39 51°16.919 2°52.84 5.7 29 9.3 101100 100
2005-03-30 06:57:45 51°16.937 2°52.825 5.7 30 9.3 101100 100
2005-03-30 06:57:49 51°16.952 2°52.812 5.7 30 9.2 101100 100
2005-03-30 06:57:54 51°16.969 2°52.798 5.6 30 9.2 101100 100
2005-03-30 06:57:59 51°16.987 2°52.784 5.7 30 9.2 101110 100
2005-03-30 06:58:05 51°17.006 2°52.77 6 29 9.2 101110 100
2005-03-30 06:58:09 51°17.022 2°52.757 6 30 9.2 101100 100
2005-03-30 06:58:14 51°17.039 2°52.743 5.8 30 9.2 101100 100
2005-03-30 06:58:18 51°17.053 2°52.732 6 30 9.1 101100 100
2005-03-30 06:58:24 51°17.073 2°52.715 6 29 9.1 101100 100
2005-03-30 06:58:29 51°17.089 2°52.703 5.9 30 9.1 101110 100
2005-03-30 06:58:34 51°17.108 2°52.687 6 28 9.1 101110 100
2005-03-30 06:58:39 51°17.126 2°52.673 6.1 29 9.1 101100 100
2005-03-30 06:58:44 51°17.143 2°52.66 6.2 28 9.1 101100 100
2005-03-30 06:58:49 51°17.158 2°52.649 5.7 30 9.1 101110 100
2005-03-30 06:58:54 51°17.178 2°52.635 6 29 9.1 101110 100
2005-03-30 06:58:58 51°17.192 2°52.626 6.1 30 9 101110 100
2005-03-30 06:59:04 51°17.214 2°52.613 5.9 30 9 101110 100
2005-03-30 06:59:09 51°17.23 2°52.604 6.1 29 9 101100 100
2005-03-30 06:59:14 51°17.25 2°52.593 6.1 31 9 101100 100
2005-03-30 06:59:19 51°17.268 2°52.582 6.3 31 9 101110 100
2005-03-30 06:59:25 51°17.288 2°52.571 6.2 31 9 101110 100
2005-03-30 06:59:29 51°17.303 2°52.563 6.2 31 9 101110 100
2005-03-30 06:59:34 51°17.323 2°52.552 6.3 30 9 101110 100
2005-03-30 06:59:39 51°17.342 2°52.543 6.5 31 8.9 101110 100
2005-03-30 06:59:45 51°17.362 2°52.535 6.6 29 8.9 101110 100
2005-03-30 06:59:50 51°17.381 2°52.529 6.6 32 8.9 101100 100
2005-03-30 06:59:54 51°17.398 2°52.525 6.7 29 8.9 101100 100
2005-03-30 06:59:58 51°17.414 2°52.522 6.5 30 8.9 101110 100
2005-03-30 07:00:05 51°17.438 2°52.517 6.8 29 8.9 101110 100
2005-03-30 07:00:09 51°17.453 2°52.514 6.7 31 8.9 101110 100
2005-03-30 07:00:14 51°17.474 2°52.509 7.1 30 8.9 101110 100
2005-03-30 07:00:20 51°17.495 2°52.505 7 30 8.9 101100 100
2005-03-30 07:00:25 51°17.514 2°52.501 7.4 29 8.9 101100 100
2005-03-30 07:00:29 51°17.531 2°52.497 7.4 28 8.9 101110 100
2005-03-30 07:00:34 51°17.55 2°52.493 7.4 28 8.9 101110 100
2005-03-30 07:00:39 51°17.569 2°52.489 7.1 28 8.9 101100 100
2005-03-30 07:00:45 51°17.59 2°52.485 6.9 28 8.9 101100 100
2005-03-30 07:00:49 51°17.605 2°52.481 7.1 26 8.9 101100 100
2005-03-30 07:00:55 51°17.628 2°52.477 7.2 28 8.9 101100 100
2005-03-30 07:01:00 51°17.647 2°52.473 7.1 27 8.8 101100 100
2005-03-30 07:01:05 51°17.665 2°52.469 7.1 28 8.8 101100 100
2005-03-30 07:01:09 51°17.683 2°52.465 6.8 28 8.8 101100 100
2005-03-30 07:01:14 51°17.702 2°52.461 7 27 8.8 101100 100
2005-03-30 07:01:19 51°17.721 2°52.457 7 27 8.8 101110 100
2005-03-30 07:01:24 51°17.739 2°52.452 7 27 8.8 101110 100
2005-03-30 07:01:29 51°17.758 2°52.446 6.9 27 8.7 101110 100
2005-03-30 07:01:34 51°17.777 2°52.441 6.8 28 8.7 101110 100
2005-03-30 07:01:39 51°17.796 2°52.436 6.9 28 8.7 101110 100
2005-03-30 07:01:44 51°17.814 2°52.431 7 28 8.7 101110 100
2005-03-30 07:01:49 51°17.833 2°52.427 7 28 8.7 101110 100
2005-03-30 07:01:54 51°17.852 2°52.422 7 28 8.7 101110 100
2005-03-30 07:01:59 51°17.871 2°52.417 7.2 29 8.7 101110 100
2005-03-30 07:02:04 51°17.889 2°52.413 7.1 27 8.7 101110 100
2005-03-30 07:02:09 51°17.908 2°52.408 7.2 28 8.6 101110 100
2005-03-30 07:02:15 51°17.929 2°52.403 6.9 28 8.6 101110 100
2005-03-30 07:02:19 51°17.944 2°52.4 6.9 29 8.6 101110 100
2005-03-30 07:02:25 51°17.967 2°52.395 7.3 26 8.6 101110 100
2005-03-30 07:02:29 51°17.982 2°52.394 7.3 25 8.6 101100 100
2005-03-30 07:02:34 51°18.002 2°52.393 7.5 24 8.6 101100 100
2005-03-30 07:02:39 51°18.021 2°52.393 7.4 24 8.6 101110 100
2005-03-30 07:02:44 51°18.039 2°52.395 7.5 26 8.6 101110 100
2005-03-30 07:02:49 51°18.056 2°52.397 7.4 27 8.6 101110 100
2005-03-30 07:02:54 51°18.075 2°52.4 7.6 27 8.6 101110 100
2005-03-30 07:02:58 51°18.092 2°52.403 7.6 27 8.6 101110 100
2005-03-30 07:03:05 51°18.116 2°52.407 7.9 25 8.6 101110 100
2005-03-30 07:03:09 51°18.133 2°52.41 7.8 23 8.6 101110 100
2005-03-30 07:03:14 51°18.151 2°52.414 7.8 22 8.6 101110 100
2005-03-30 07:03:18 51°18.166 2°52.417 7.7 24 8.6 101100 100
2005-03-30 07:03:24 51°18.188 2°52.421 7.5 25 8.6 101100 100
2005-03-30 07:03:30 51°18.209 2°52.424 7.8 25 8.5 101110 100
2005-03-30 07:03:34 51°18.226 2°52.427 7.4 27 8.5 101110 100
2005-03-30 07:03:38 51°18.241 2°52.43 7.6 26 8.5 101110 100
2005-03-30 07:03:44 51°18.263 2°52.434 7.9 27 8.5 101110 100
2005-03-30 07:03:49 51°18.28 2°52.437 7.5 29 8.5 101110 100
2005-03-30 07:03:54 51°18.299 2°52.44 7.6 26 8.5 101110 100
2005-03-30 07:03:59 51°18.32 2°52.444 7.5 28 8.5 101110 100
2005-03-30 07:04:05 51°18.34 2°52.447 7.6 28 8.5 101110 100
2005-03-30 07:04:09 51°18.357 2°52.449 7.4 28 8.5 101110 100
2005-03-30 07:04:14 51°18.376 2°52.453 7.5 29 8.5 101110 100
2005-03-30 07:04:20 51°18.396 2°52.457 7.6 29 8.4 101110 100
2005-03-30 07:04:25 51°18.415 2°52.459 7.5 29 8.4 101110 100
2005-03-30 07:04:29 51°18.432 2°52.461 8 28 8.4 101110 100
2005-03-30 07:04:34 51°18.451 2°52.464 7.7 28 8.4 101110 100
2005-03-30 07:04:39 51°18.468 2°52.467 8 28 8.4 101100 100
2005-03-30 07:04:44 51°18.488 2°52.472 8.1 26 8.4 101100 100
2005-03-30 07:04:49 51°18.506 2°52.48 8.1 26 8.4 101110 100
2005-03-30 07:04:54 51°18.523 2°52.491 8.7 23 8.4 101110 100
2005-03-30 07:04:59 51°18.539 2°52.505 8.5 23 8.4 101110 100
2005-03-30 07:05:05 51°18.555 2°52.523 8.8 21 8.4 101110 100
2005-03-30 07:05:09 51°18.567 2°52.539 9.2 20 8.3 101110 100
2005-03-30 07:05:15 51°18.58 2°52.563 9.3 20 8.3 101110 100
2005-03-30 07:05:19 51°18.59 2°52.58 9.2 18 8.3 101110 100
2005-03-30 07:05:24 51°18.601 2°52.604 9.1 14 8.3 101110 100
2005-03-30 07:05:29 51°18.61 2°52.624 9.2 14 8.3 101110 100
2005-03-30 07:05:34 51°18.62 2°52.651 9.2 12 8.3 101110 100
2005-03-30 07:05:39 51°18.628 2°52.676 9.5 13 8.3 101110 100
2005-03-30 07:05:44 51°18.636 2°52.701 9.2 13 8.3 101110 100
2005-03-30 07:05:49 51°18.642 2°52.724 9.3 12 8.3 101110 100
2005-03-30 07:05:54 51°18.65 2°52.752 9.3 15 8.3 101110 100
2005-03-30 07:05:59 51°18.657 2°52.779 9.3 13 8.3 101110 100
2005-03-30 07:06:04 51°18.664 2°52.805 9.1 13 8.3 101110 100
2005-03-30 07:06:09 51°18.67 2°52.831 9.1 14 8.2 101110 100
2005-03-30 07:06:15 51°18.678 2°52.86 8.9 14 8.2 101110 100
2005-03-30 07:06:20 51°18.684 2°52.885 8.9 12 8.2 101110 100
2005-03-30 07:06:24 51°18.691 2°52.91 9.3 15 8.2 101110 100
2005-03-30 07:06:29 51°18.697 2°52.933 9 15 8.2 101110 100
2005-03-30 07:06:34 51°18.704 2°52.963 8.9 12 8.2 101110 100
2005-03-30 07:06:39 51°18.711 2°52.99 8.7 16 8.2 101110 100
2005-03-30 07:06:45 51°18.717 2°53.019 9.3 13 8.2 101110 100
2005-03-30 07:06:50 51°18.723 2°53.046 9.1 15 8.2 101110 100
2005-03-30 07:06:54 51°18.727 2°53.071 9.2 14 8.2 101110 100
2005-03-30 07:06:59 51°18.732 2°53.098 9.2 14 8.2 101110 100
2005-03-30 07:07:04 51°18.737 2°53.125 8.9 14 8.2 101110 100
2005-03-30 07:07:09 51°18.741 2°53.15 9.1 15 8.1 101110 100
2005-03-30 07:07:14 51°18.746 2°53.18 8.8 13 8.1 101110 100
2005-03-30 07:07:20 51°18.752 2°53.21 9.1 13 8.1 101110 100
2005-03-30 07:07:24 51°18.756 2°53.235 9 13 8.1 101110 100
2005-03-30 07:07:29 51°18.76 2°53.263 8.9 16 8.1 101110 100
2005-03-30 07:07:34 51°18.765 2°53.29 9.2 15 8.1 101110 100
2005-03-30 07:07:40 51°18.77 2°53.32 8.9 15 8.1 101110 100
2005-03-30 07:07:44 51°18.774 2°53.345 9.3 15 8.1 101110 100
2005-03-30 07:07:49 51°18.779 2°53.37 9.1 15 8.1 101110 100
2005-03-30 07:07:54 51°18.784 2°53.399 8.9 15 8.1 101110 100
2005-03-30 07:08:00 51°18.79 2°53.43 9 15 8.1 101110 100
2005-03-30 07:08:05 51°18.794 2°53.457 8.6 15 8.1 101110 100
2005-03-30 07:08:09 51°18.798 2°53.482 9.3 14 8.1 101110 100
2005-03-30 07:08:14 51°18.803 2°53.509 8.5 16 8.1 101110 100
2005-03-30 07:08:19 51°18.808 2°53.537 8.9 14 8.1 101070 100
2005-03-30 07:08:25 51°18.814 2°53.566 9 14 8.1 101070 100
2005-03-30 07:08:29 51°18.818 2°53.588 9.1 16 8.1 101070 100
2005-03-30 07:08:34 51°18.824 2°53.618 9 16 8.1 101070 100
2005-03-30 07:08:38 51°18.829 2°53.639 8.7 17 8.1 101070 100
2005-03-30 07:08:45 51°18.837 2°53.673 8.9 13 8.1 101070 100
2005-03-30 07:08:50 51°18.843 2°53.7 8.8 16 8.1 101070 100
2005-03-30 07:08:54 51°18.849 2°53.724 8.8 16 8.1 101070 100
2005-03-30 07:09:00 51°18.856 2°53.753 9.1 14 8.1 101070 100
2005-03-30 07:09:04 51°18.862 2°53.777 8.6 16 8.1 101070 100
2005-03-30 07:09:09 51°18.869 2°53.804 9.3 15 8 101070 100
2005-03-30 07:09:15 51°18.876 2°53.833 8.8 16 8 101070 100
2005-03-30 07:09:18 51°18.88 2°53.851 9.2 15 8 101070 100
2005-03-30 07:09:25 51°18.888 2°53.886 8.7 15 8 101070 100
2005-03-30 07:09:29 51°18.893 2°53.908 9 14 8 101070 100
2005-03-30 07:09:34 51°18.9 2°53.937 9.1 14 8 101070 100
2005-03-30 07:09:40 51°18.907 2°53.966 8.9 13 8 101080 100
2005-03-30 07:09:45 51°18.913 2°53.993 9 15 8 101080 100
2005-03-30 07:09:49 51°18.918 2°54.014 9.3 13 8 101070 100
2005-03-30 07:09:54 51°18.925 2°54.044 9.1 14 8 101070 100
2005-03-30 07:10:00 51°18.932 2°54.073 8.8 14 8 101070 100
2005-03-30 07:10:04 51°18.938 2°54.097 8.9 14 8 101070 100
2005-03-30 07:10:09 51°18.944 2°54.121 8.5 15 8 101080 100
2005-03-30 07:10:15 51°18.951 2°54.154 8.7 15 8 101080 100
2005-03-30 07:10:19 51°18.958 2°54.177 8.8 14 8 101070 100
2005-03-30 07:10:25 51°18.964 2°54.206 8.7 14 8 101070 100
2005-03-30 07:10:29 51°18.97 2°54.231 8.5 13 8 101070 100
2005-03-30 07:10:34 51°18.976 2°54.257 9.1 13 8 101070 100
2005-03-30 07:10:39 51°18.983 2°54.284 9.1 15 8 101070 100
2005-03-30 07:10:45 51°18.99 2°54.313 8.8 16 8 101070 100
2005-03-30 07:10:49 51°18.995 2°54.337 8.7 15 8 101080 100
2005-03-30 07:10:54 51°19.002 2°54.364 8.8 14 8 101080 100
2005-03-30 07:10:59 51°19.008 2°54.391 9.3 16 8 101070 100
2005-03-30 07:11:04 51°19.014 2°54.417 9 13 8 101070 100
2005-03-30 07:11:10 51°19.021 2°54.446 9.2 15 8 101070 100
2005-03-30 07:11:14 51°19.027 2°54.47 9 13 8 101070 100
2005-03-30 07:11:20 51°19.034 2°54.499 9.3 12 8 101070 100
2005-03-30 07:11:25 51°19.039 2°54.526 9 13 8 101070 100
2005-03-30 07:11:28 51°19.044 2°54.544 8.6 13 8 101070 100
2005-03-30 07:11:34 51°19.051 2°54.574 9.4 13 8 101070 100
2005-03-30 07:11:40 51°19.058 2°54.606 9 10 8 101070 100
2005-03-30 07:11:45 51°19.064 2°54.633 9.2 13 8 101070 100
2005-03-30 07:11:49 51°19.069 2°54.654 9.3 12 8 101070 100
2005-03-30 07:11:54 51°19.075 2°54.684 9.2 10 8 101070 100
2005-03-30 07:11:59 51°19.081 2°54.711 9.3 12 8 101070 100
2005-03-30 07:12:05 51°19.088 2°54.74 9.4 11 8 101070 100
2005-03-30 07:12:09 51°19.093 2°54.764 9.4 10 7.9 101080 100
2005-03-30 07:12:14 51°19.099 2°54.791 9.4 10 7.9 101080 100
2005-03-30 07:12:19 51°19.106 2°54.818 9.4 12 7.9 101080 100
2005-03-30 07:12:25 51°19.112 2°54.846 9.1 8 7.9 101080 100
2005-03-30 07:12:29 51°19.117 2°54.868 9.5 10 7.9 101070 100
2005-03-30 07:12:34 51°19.124 2°54.897 9.9 9 7.9 101070 100
2005-03-30 07:12:38 51°19.128 2°54.918 9.9 10 7.9 101070 100
2005-03-30 07:12:45 51°19.136 2°54.953 10.1 9 7.9 101070 100
2005-03-30 07:12:49 51°19.141 2°54.974 10 10 7.9 101070 100
2005-03-30 07:12:54 51°19.148 2°55.004 10 8 7.9 101070 100
2005-03-30 07:12:59 51°19.153 2°55.028 10 10 7.9 101070 100
2005-03-30 07:13:04 51°19.16 2°55.057 10.1 7 7.9 101070 100
2005-03-30 07:13:10 51°19.166 2°55.086 9.8 11 7.9 101070 100
2005-03-30 07:13:14 51°19.172 2°55.11 9.7 7 7.9 101070 100
2005-03-30 07:13:18 51°19.176 2°55.131 9.9 8 8 101070 100
2005-03-30 07:13:25 51°19.183 2°55.166 10 10 8 101070 100
2005-03-30 07:13:29 51°19.189 2°55.19 9.9 8 8 101070 100
2005-03-30 07:13:34 51°19.195 2°55.216 10.1 11 8 101070 100
2005-03-30 07:13:39 51°19.2 2°55.243 10.3 9 7.9 101070 100
2005-03-30 07:13:45 51°19.207 2°55.272 10.4 9 7.9 101070 100
2005-03-30 07:13:50 51°19.212 2°55.299 10.3 8 7.9 101070 100
2005-03-30 07:13:54 51°19.218 2°55.323 10.4 9 7.9 101070 100
2005-03-30 07:13:58 51°19.223 2°55.344 10.8 8 7.9 101070 100
2005-03-30 07:14:05 51°19.231 2°55.379 10.4 8 7.9 101070 100
2005-03-30 07:14:09 51°19.236 2°55.403 10.5 10 7.9 101080 100
2005-03-30 07:14:14 51°19.242 2°55.429 11.1 9 7.9 101080 100
2005-03-30 07:14:19 51°19.248 2°55.456 10.8 9 7.9 101070 100
2005-03-30 07:14:24 51°19.254 2°55.482 10.7 11 7.9 101070 100
2005-03-30 07:14:30 51°19.26 2°55.512 10.9 11 7.9 101070 100
2005-03-30 07:14:34 51°19.266 2°55.535 11 9 7.9 101070 100
2005-03-30 07:14:40 51°19.272 2°55.565 10.8 10 7.9 101070 100
2005-03-30 07:14:45 51°19.279 2°55.591 10.4 8 7.9 101070 100
2005-03-30 07:14:49 51°19.284 2°55.613 10.8 9 7.9 101070 100
2005-03-30 07:14:54 51°19.29 2°55.642 10.7 10 7.9 101070 100
2005-03-30 07:14:58 51°19.295 2°55.663 11.2 10 7.9 101080 100
2005-03-30 07:15:04 51°19.302 2°55.695 11 10 7.9 101080 100
2005-03-30 07:15:09 51°19.308 2°55.719 10.8 9 8 101070 100
2005-03-30 07:15:14 51°19.314 2°55.748 10.7 9 8 101070 100
2005-03-30 07:15:20 51°19.321 2°55.778 10.5 10 7.9 101070 100
2005-03-30 07:15:24 51°19.326 2°55.802 10.8 8 7.9 101070 100
2005-03-30 07:15:29 51°19.331 2°55.826 10.9 10 7.9 101080 100
2005-03-30 07:15:34 51°19.338 2°55.855 11.3 10 7.9 101080 100
2005-03-30 07:15:39 51°19.344 2°55.882 11.3 10 7.9 101070 100
2005-03-30 07:15:45 51°19.351 2°55.911 11.3 10 7.9 101070 100
2005-03-30 07:15:49 51°19.356 2°55.935 11.2 10 7.9 101080 100
2005-03-30 07:15:54 51°19.362 2°55.962 10.8 10 7.9 101080 100
2005-03-30 07:16:00 51°19.368 2°55.992 10.9 11 8 101070 100
2005-03-30 07:16:05 51°19.375 2°56.018 11.5 10 8 101070 100
2005-03-30 07:16:09 51°19.38 2°56.042 11.2 9 8 101070 100
2005-03-30 07:16:14 51°19.386 2°56.069 10.3 8 8 101070 100
2005-03-30 07:16:18 51°19.391 2°56.09 10.8 10 8 101070 100
2005-03-30 07:16:24 51°19.398 2°56.122 10.9 10 8 101070 100
2005-03-30 07:16:29 51°19.404 2°56.149 10.7 9 8 101070 100
2005-03-30 07:16:35 51°19.411 2°56.179 10.8 8 8 101070 100
2005-03-30 07:16:38 51°19.415 2°56.197 10.8 8 8 101080 100
2005-03-30 07:16:44 51°19.421 2°56.23 11.1 9 8 101080 100
2005-03-30 07:16:49 51°19.427 2°56.253 10.2 7 8 101080 100
2005-03-30 07:16:54 51°19.433 2°56.283 10.9 9 8 101080 100
2005-03-30 07:16:59 51°19.439 2°56.31 11 10 8 101070 100
2005-03-30 07:17:04 51°19.445 2°56.337 10.8 10 8 101070 100
2005-03-30 07:17:09 51°19.451 2°56.364 11 10 8 101100 100
2005-03-30 07:17:14 51°19.457 2°56.39 10.9 11 8 101100 100
2005-03-30 07:17:18 51°19.463 2°56.411 11 8 8 101080 100
2005-03-30 07:17:24 51°19.47 2°56.443 11 9 8 101080 100
2005-03-30 07:17:29 51°19.476 2°56.47 11 8 8 101070 100
2005-03-30 07:17:34 51°19.482 2°56.497 10.8 8 8 101070 100
2005-03-30 07:17:39 51°19.488 2°56.523 10.8 8 8 101070 100
2005-03-30 07:17:44 51°19.494 2°56.55 10.4 7 8 101070 100
2005-03-30 07:17:49 51°19.5 2°56.574 10.6 8 8 101080 100
2005-03-30 07:17:54 51°19.506 2°56.603 10.4 7 8 101080 100
2005-03-30 07:17:58 51°19.511 2°56.624 10.1 8 8 101070 100
2005-03-30 07:18:04 51°19.518 2°56.657 10.5 7 8 101070 100
2005-03-30 07:18:10 51°19.524 2°56.686 10.3 8 8 101080 100
2005-03-30 07:18:14 51°19.53 2°56.71 10.5 7 8 101080 100
2005-03-30 07:18:19 51°19.535 2°56.737 10.2 8 8 101080 100
2005-03-30 07:18:24 51°19.541 2°56.764 10.4 8 8 101080 100
2005-03-30 07:18:29 51°19.546 2°56.788 10.1 8 8 101080 100
2005-03-30 07:18:34 51°19.553 2°56.817 10.3 9 8 101080 100
2005-03-30 07:18:40 51°19.559 2°56.847 10.3 8 8 101080 100
2005-03-30 07:18:45 51°19.565 2°56.873 10.8 9 8 101080 100
2005-03-30 07:18:49 51°19.57 2°56.894 10.5 9 8 101080 100
2005-03-30 07:18:54 51°19.577 2°56.923 10.8 9 8 101080 100
2005-03-30 07:18:58 51°19.582 2°56.944 10.8 10 8 101080 100
2005-03-30 07:19:04 51°19.59 2°56.976 11 10 8 101080 100
2005-03-30 07:19:09 51°19.596 2°56.999 10.7 10 8 101080 100
2005-03-30 07:19:14 51°19.603 2°57.028 10.8 9 8 101080 100
2005-03-30 07:19:20 51°19.61 2°57.057 10.8 9 8 101080 100
2005-03-30 07:19:25 51°19.617 2°57.083 10.8 11 8 101080 100
2005-03-30 07:19:29 51°19.622 2°57.104 10.8 11 8 101080 100
2005-03-30 07:19:34 51°19.628 2°57.133 10.8 11 8 101080 100
2005-03-30 07:19:39 51°19.635 2°57.16 10.6 8 8 101080 100
2005-03-30 07:19:45 51°19.641 2°57.189 11 11 8 101080 100
2005-03-30 07:19:49 51°19.647 2°57.21 11.2 8 8 101080 100
2005-03-30 07:19:54 51°19.653 2°57.239 11 7 8 101080 100
2005-03-30 07:19:59 51°19.66 2°57.266 10.7 11 8 101080 100
2005-03-30 07:20:05 51°19.667 2°57.294 10.8 10 8 101080 100
2005-03-30 07:20:09 51°19.674 2°57.318 10.9 9 8 101080 100
2005-03-30 07:20:14 51°19.681 2°57.344 11.2 10 8 101080 100
2005-03-30 07:20:19 51°19.688 2°57.371 10.9 8 8.1 101080 100
2005-03-30 07:20:24 51°19.694 2°57.397 11.4 8 8.1 101080 100
2005-03-30 07:20:29 51°19.7 2°57.421 11.3 10 8.1 101080 100
2005-03-30 07:20:34 51°19.708 2°57.45 11.6 9 8.1 101080 100
2005-03-30 07:20:38 51°19.713 2°57.471 11.3 10 8.1 101080 100
2005-03-30 07:20:45 51°19.722 2°57.506 11.2 9 8.1 101080 100
2005-03-30 07:20:49 51°19.727 2°57.527 11.2 9 8.1 101080 100
2005-03-30 07:20:54 51°19.734 2°57.557 11.1 9 8.1 101080 100
2005-03-30 07:20:58 51°19.739 2°57.578 11.2 7 8.1 101090 100
2005-03-30 07:21:05 51°19.747 2°57.612 11.1 8 8.1 101090 100
2005-03-30 07:21:09 51°19.752 2°57.634 10.8 9 8.1 101110 100
2005-03-30 07:21:14 51°19.76 2°57.663 11.2 8 8.1 101110 100
2005-03-30 07:21:20 51°19.767 2°57.692 11.1 7 8.1 101110 100
2005-03-30 07:21:25 51°19.774 2°57.719 10.8 8 8.1 101110 100
2005-03-30 07:21:29 51°19.78 2°57.743 11.2 7 8.1 101110 100
2005-03-30 07:21:34 51°19.786 2°57.769 11.2 7 8.1 101110 100
2005-03-30 07:21:38 51°19.791 2°57.79 11 6 8.1 101100 100
2005-03-30 07:21:45 51°19.8 2°57.825 11.1 5 8.1 101100 100
2005-03-30 07:21:49 51°19.805 2°57.846 10.7 8 8.1 101100 100
2005-03-30 07:21:54 51°19.812 2°57.876 10.8 7 8.1 101100 100
2005-03-30 07:21:58 51°19.818 2°57.897 11 7 8.1 101100 100
2005-03-30 07:22:05 51°19.826 2°57.931 10.7 8 8.1 101100 100
2005-03-30 07:22:09 51°19.833 2°57.955 11.2 7 8.1 101110 100
2005-03-30 07:22:14 51°19.839 2°57.981 11 7 8.1 101110 100
2005-03-30 07:22:19 51°19.846 2°58.008 10.9 6 8.1 101100 100
2005-03-30 07:22:24 51°19.852 2°58.034 10.9 8 8.1 101100 100
2005-03-30 07:22:30 51°19.86 2°58.063 11.2 7 8 101110 100
2005-03-30 07:22:34 51°19.866 2°58.087 10.9 8 8 101110 100
2005-03-30 07:22:40 51°19.873 2°58.116 10.7 5 8.1 101100 100
2005-03-30 07:22:45 51°19.88 2°58.142 10.4 7 8.1 101100 100
2005-03-30 07:22:49 51°19.885 2°58.163 10.7 9 8 101110 100
2005-03-30 07:22:55 51°19.893 2°58.196 10.5 9 8 101110 100
2005-03-30 07:22:58 51°19.898 2°58.214 10.7 9 8.1 101110 100
2005-03-30 07:23:04 51°19.907 2°58.245 10.7 9 8.1 101110 100
2005-03-30 07:23:09 51°19.914 2°58.268 10.8 7 8.1 101110 100
2005-03-30 07:23:14 51°19.923 2°58.296 10.4 9 8.1 101110 100
2005-03-30 07:23:20 51°19.932 2°58.324 10.4 10 8.1 101110 100
2005-03-30 07:23:24 51°19.939 2°58.346 10.6 9 8.1 101110 100
2005-03-30 07:23:28 51°19.946 2°58.367 10.9 12 8 101110 100
2005-03-30 07:23:34 51°19.956 2°58.397 10.6 10 8 101110 100
2005-03-30 07:23:38 51°19.962 2°58.418 10.8 10 8 101090 100
2005-03-30 07:23:45 51°19.972 2°58.451 10.5 10 8 101090 100
2005-03-30 07:23:49 51°19.979 2°58.475 10.8 8 8 101090 100
2005-03-30 07:23:54 51°19.986 2°58.501 10.7 10 8 101090 100
2005-03-30 07:24:00 51°19.995 2°58.529 10.8 9 8 101090 100
2005-03-30 07:24:04 51°20.001 2°58.553 10.4 10 8 101090 100
2005-03-30 07:24:10 51°20.009 2°58.581 10.9 10 8 101100 100
2005-03-30 07:24:14 51°20.016 2°58.605 10.7 10 8 101100 100
2005-03-30 07:24:19 51°20.023 2°58.631 10.6 10 8 101080 100
2005-03-30 07:24:25 51°20.031 2°58.659 10.7 9 8 101080 100
2005-03-30 07:24:30 51°20.038 2°58.685 10.8 7 8.1 101090 100
2005-03-30 07:24:34 51°20.044 2°58.709 10.9 9 8.1 101090 100
2005-03-30 07:24:39 51°20.051 2°58.735 10.6 9 8 101080 100
2005-03-30 07:24:45 51°20.059 2°58.764 10.7 6 8 101080 100
2005-03-30 07:24:49 51°20.065 2°58.785 10.3 7 8.1 101090 100
2005-03-30 07:24:54 51°20.073 2°58.813 10 6 8.1 101090 100
2005-03-30 07:24:58 51°20.079 2°58.834 10.3 7 8.1 101090 100
2005-03-30 07:25:04 51°20.088 2°58.865 10.4 5 8.1 101090 100
2005-03-30 07:25:09 51°20.095 2°58.891 10.1 6 8.1 101090 100
2005-03-30 07:25:15 51°20.103 2°58.92 10.2 8 8.1 101090 100
2005-03-30 07:25:19 51°20.11 2°58.943 10.3 8 8.1 101090 100
2005-03-30 07:25:24 51°20.117 2°58.968 10.5 7 8.1 101090 100
2005-03-30 07:25:29 51°20.124 2°58.991 9.9 7 8.1 101090 100
2005-03-30 07:25:34 51°20.132 2°59.02 9.9 8 8.1 101090 100
2005-03-30 07:25:40 51°20.14 2°59.048 10.5 5 8 101090 100
2005-03-30 07:25:45 51°20.147 2°59.074 10 9 8 101090 100
2005-03-30 07:25:49 51°20.153 2°59.094 9.8 6 8 101090 100
2005-03-30 07:25:54 51°20.161 2°59.123 10.2 7 8 101090 100
2005-03-30 07:25:59 51°20.168 2°59.149 9.9 8 8 101090 100
2005-03-30 07:26:04 51°20.175 2°59.175 10 7 8 101090 100
2005-03-30 07:26:10 51°20.183 2°59.203 9.9 7 8 101090 100
2005-03-30 07:26:14 51°20.19 2°59.227 10.3 7 8 101090 100
2005-03-30 07:26:19 51°20.197 2°59.253 9.8 8 8 101090 100
2005-03-30 07:26:25 51°20.205 2°59.28 10.1 9 8 101090 100
2005-03-30 07:26:29 51°20.211 2°59.301 10.3 10 8 101090 100
2005-03-30 07:26:34 51°20.219 2°59.329 10.3 6 8 101090 100
2005-03-30 07:26:38 51°20.225 2°59.349 10.4 11 8 101090 100
2005-03-30 07:26:44 51°20.234 2°59.38 10.1 9 8 101090 100
2005-03-30 07:26:49 51°20.24 2°59.403 10.1 9 8 101090 100
2005-03-30 07:26:55 51°20.249 2°59.434 10.4 8 8 101090 100
2005-03-30 07:26:58 51°20.254 2°59.452 10.4 13 8 101090 100
2005-03-30 07:27:04 51°20.263 2°59.482 10.4 8 8 101090 100
2005-03-30 07:27:09 51°20.269 2°59.505 10.7 11 8 101080 100
2005-03-30 07:27:14 51°20.277 2°59.533 10.1 11 8 101080 100
2005-03-30 07:27:19 51°20.284 2°59.559 10.4 11 8 101090 100
2005-03-30 07:27:25 51°20.292 2°59.588 10 11 8 101090 100
2005-03-30 07:27:29 51°20.298 2°59.608 10.2 9 8 101080 100
2005-03-30 07:27:34 51°20.305 2°59.635 10 11 8 101080 100
2005-03-30 07:27:39 51°20.313 2°59.661 10.1 12 8 101090 100
2005-03-30 07:27:44 51°20.32 2°59.686 10.2 10 8 101090 100
2005-03-30 07:27:49 51°20.326 2°59.709 9.9 10 7.9 101090 100
2005-03-30 07:27:54 51°20.334 2°59.737 10.2 9 7.9 101090 100
2005-03-30 07:28:00 51°20.342 2°59.765 10.1 10 7.9 101090 100
2005-03-30 07:28:05 51°20.349 2°59.79 10.1 9 7.9 101090 100
2005-03-30 07:28:09 51°20.354 2°59.811 10.4 12 7.9 101090 100
2005-03-30 07:28:14 51°20.362 2°59.839 10 11 7.9 101090 100
2005-03-30 07:28:19 51°20.369 2°59.865 10 9 7.9 101090 100
2005-03-30 07:28:24 51°20.376 2°59.891 10 10 7.9 101090 100
2005-03-30 07:28:30 51°20.383 2°59.919 10 10 8 101090 100
2005-03-30 07:28:34 51°20.39 2°59.942 10.2 11 8 101090 100
2005-03-30 07:28:39 51°20.397 2°59.968 10 10 7.9 101090 100
2005-03-30 07:28:45 51°20.404 2°59.996 10.3 11 7.9 101090 100
2005-03-30 07:28:49 51°20.41 3°0.016 10 10 7.9 101090 100
2005-03-30 07:28:54 51°20.418 3°0.045 10 10 7.9 101090 100
2005-03-30 07:28:58 51°20.424 3°0.065 10.5 9 7.9 101090 100
2005-03-30 07:29:04 51°20.432 3°0.096 10 11 7.9 101090 100
2005-03-30 07:29:09 51°20.439 3°0.118 10.3 9 7.9 101090 100
2005-03-30 07:29:14 51°20.446 3°0.146 10.1 9 7.9 101090 100
2005-03-30 07:29:20 51°20.454 3°0.174 10.6 10 8 101090 100
2005-03-30 07:29:24 51°20.46 3°0.197 10.3 9 8 101090 100
2005-03-30 07:29:29 51°20.466 3°0.22 10.2 11 8 101090 100
2005-03-30 07:29:34 51°20.474 3°0.248 10.2 11 8 101090 100
2005-03-30 07:29:39 51°20.48 3°0.275 10 12 8 101090 100
2005-03-30 07:29:44 51°20.487 3°0.3 10 11 8 101090 100
2005-03-30 07:29:49 51°20.492 3°0.323 10.1 9 7.9 101090 100
2005-03-30 07:29:54 51°20.5 3°0.351 10.3 10 7.9 101090 100
2005-03-30 07:30:00 51°20.506 3°0.379 9.9 10 7.9 101090 100
2005-03-30 07:30:05 51°20.513 3°0.405 10 10 7.9 101090 100
2005-03-30 07:30:09 51°20.518 3°0.425 10.1 10 8 101090 100
2005-03-30 07:30:14 51°20.526 3°0.453 10.1 11 8 101090 100
2005-03-30 07:30:20 51°20.533 3°0.481 10.3 9 8 101090 100
2005-03-30 07:30:24 51°20.539 3°0.504 9.7 10 8 101090 100
2005-03-30 07:30:29 51°20.545 3°0.527 10.2 9 8 101090 100
2005-03-30 07:30:34 51°20.552 3°0.555 10 7 8 101090 100
2005-03-30 07:30:39 51°20.559 3°0.581 10.3 9 8 101090 100
2005-03-30 07:30:45 51°20.565 3°0.609 10 10 8 101090 100
2005-03-30 07:30:49 51°20.571 3°0.632 10 10 8 101090 100
2005-03-30 07:30:54 51°20.578 3°0.657 10.1 12 8 101090 100
2005-03-30 07:30:58 51°20.583 3°0.677 9.9 10 8 101090 100
2005-03-30 07:31:05 51°20.592 3°0.709 9.9 11 8 101090 100
2005-03-30 07:31:09 51°20.596 3°0.73 10.5 13 8 101090 100
2005-03-30 07:31:14 51°20.604 3°0.758 10.5 11 8 101090 100
2005-03-30 07:31:18 51°20.609 3°0.778 10.6 12 7.9 101100 100
2005-03-30 07:31:24 51°20.617 3°0.808 10.4 12 7.9 101100 100
2005-03-30 07:31:29 51°20.622 3°0.832 10.4 11 7.9 101090 100
2005-03-30 07:31:35 51°20.63 3°0.863 10.4 11 7.9 101090 100
2005-03-30 07:31:39 51°20.635 3°0.886 10.2 11 7.9 101090 100
2005-03-30 07:31:45 51°20.642 3°0.913 9.8 12 7.9 101090 100
2005-03-30 07:31:49 51°20.648 3°0.936 10.3 10 8 101090 100
2005-03-30 07:31:54 51°20.654 3°0.961 10.6 11 8 101090 100
2005-03-30 07:31:59 51°20.661 3°0.987 10.2 10 8 101090 100
2005-03-30 07:32:04 51°20.667 3°1.012 10 10 8 101090 100
2005-03-30 07:32:10 51°20.674 3°1.04 10.1 12 8 101080 100
2005-03-30 07:32:14 51°20.679 3°1.063 10.4 11 8 101080 100
2005-03-30 07:32:19 51°20.686 3°1.089 10.3 8 8 101090 100
2005-03-30 07:32:25 51°20.693 3°1.117 10.3 10 8 101090 100
2005-03-30 07:32:29 51°20.698 3°1.141 10.6 10 8 101090 100
2005-03-30 07:32:35 51°20.705 3°1.169 10.1 10 8 101090 100
2005-03-30 07:32:39 51°20.71 3°1.189 10.2 12 8 101090 100
2005-03-30 07:32:44 51°20.717 3°1.216 10.5 12 8 101090 100
2005-03-30 07:32:49 51°20.723 3°1.242 10.6 15 8 101090 100
2005-03-30 07:32:54 51°20.729 3°1.267 10.6 11 8 101090 100
2005-03-30 07:32:59 51°20.735 3°1.293 10.3 13 8 101090 100
2005-03-30 07:33:05 51°20.741 3°1.32 11 12 8 101090 100
2005-03-30 07:33:09 51°20.746 3°1.343 10.4 12 7.9 101090 100
2005-03-30 07:33:14 51°20.752 3°1.368 10.5 11 7.9 101090 100
2005-03-30 07:33:19 51°20.758 3°1.394 10.6 11 7.9 101090 100
2005-03-30 07:33:24 51°20.764 3°1.419 10.6 11 7.9 101090 100
2005-03-30 07:33:29 51°20.77 3°1.444 10.6 12 8 101090 100
2005-03-30 07:33:34 51°20.776 3°1.469 11 14 8 101090 100
2005-03-30 07:33:39 51°20.782 3°1.493 10.7 12 8 101090 100
2005-03-30 07:33:44 51°20.788 3°1.52 11.2 12 8 101090 100
2005-03-30 07:33:49 51°20.795 3°1.546 10.6 10 8 101090 100
2005-03-30 07:33:54 51°20.8 3°1.571 10.8 9 8 101090 100
2005-03-30 07:33:59 51°20.807 3°1.597 10.6 12 8 101090 100
2005-03-30 07:34:04 51°20.813 3°1.622 11.1 12 8 101090 100
2005-03-30 07:34:10 51°20.82 3°1.65 10.9 13 8 101090 100
2005-03-30 07:34:14 51°20.826 3°1.673 11.1 13 8 101090 100
2005-03-30 07:34:20 51°20.833 3°1.701 11.2 12 8 101090 100
2005-03-30 07:34:24 51°20.838 3°1.724 10.6 13 8 101090 100
2005-03-30 07:34:29 51°20.845 3°1.749 11.2 13 8 101090 100
2005-03-30 07:34:34 51°20.851 3°1.774 10.9 13 8 101090 100
2005-03-30 07:34:39 51°20.856 3°1.798 10.7 12 8 101090 100
2005-03-30 07:34:45 51°20.864 3°1.828 10.7 14 8 101090 100
2005-03-30 07:34:49 51°20.87 3°1.851 11.1 11 8 101090 100
2005-03-30 07:34:54 51°20.876 3°1.876 10.8 13 8 101090 100
2005-03-30 07:34:58 51°20.881 3°1.896 11.2 11 8 101090 100
2005-03-30 07:35:05 51°20.89 3°1.929 11 12 8 101090 100
2005-03-30 07:35:09 51°20.895 3°1.952 10.9 11 8 101080 100
2005-03-30 07:35:14 51°20.901 3°1.978 10.7 11 8 101080 100
2005-03-30 07:35:18 51°20.907 3°1.998 10.8 11 8 101090 100
2005-03-30 07:35:25 51°20.915 3°2.031 10.8 12 8 101090 100
2005-03-30 07:35:29 51°20.921 3°2.054 11.1 11 8 101080 100
2005-03-30 07:35:34 51°20.927 3°2.079 11.2 10 8 101080 100
2005-03-30 07:35:38 51°20.932 3°2.1 10.9 12 8 101090 100
2005-03-30 07:35:44 51°20.94 3°2.13 11.1 13 8 101090 100
2005-03-30 07:35:50 51°20.946 3°2.157 11.3 11 8 101080 100
2005-03-30 07:35:54 51°20.952 3°2.181 10.8 10 8 101080 100
2005-03-30 07:35:59 51°20.959 3°2.207 11 12 8.1 101080 100
2005-03-30 07:36:04 51°20.965 3°2.232 11 10 8.1 101080 100
2005-03-30 07:36:09 51°20.971 3°2.254 10.5 12 8.1 101080 100
2005-03-30 07:36:14 51°20.978 3°2.282 11.2 12 8.1 101080 100
2005-03-30 07:36:19 51°20.983 3°2.306 10.6 11 8.1 101090 100
2005-03-30 07:36:25 51°20.99 3°2.336 10.9 11 8.1 101090 100
2005-03-30 07:36:29 51°20.996 3°2.359 10.6 8 8.1 101090 100
2005-03-30 07:36:35 51°21.002 3°2.387 10.6 11 8.1 101090 100
2005-03-30 07:36:38 51°21.007 3°2.404 10.9 11 8.1 101080 100
2005-03-30 07:36:45 51°21.015 3°2.437 11 10 8.1 101080 100
2005-03-30 07:36:49 51°21.021 3°2.46 11.1 11 8.1 101090 100
2005-03-30 07:36:54 51°21.027 3°2.486 11 9 8.1 101090 100
2005-03-30 07:37:00 51°21.035 3°2.514 11 9 8.1 101090 100
2005-03-30 07:37:05 51°21.041 3°2.54 10.7 11 8.1 101090 100
2005-03-30 07:37:09 51°21.047 3°2.563 11.1 11 8.1 101080 100
2005-03-30 07:37:14 51°21.053 3°2.588 11 11 8.1 101080 100
2005-03-30 07:37:19 51°21.059 3°2.613 11 10 8.1 101080 100
2005-03-30 07:37:25 51°21.065 3°2.64 11.2 12 8.1 101080 100
2005-03-30 07:37:29 51°21.07 3°2.66 10.5 10 8.1 101080 100
2005-03-30 07:37:34 51°21.077 3°2.688 11 8 8.1 101080 100
2005-03-30 07:37:39 51°21.083 3°2.712 10.3 13 8.1 101090 100
2005-03-30 07:37:45 51°21.09 3°2.742 10.5 11 8.1 101090 100
2005-03-30 07:37:50 51°21.096 3°2.767 10.4 11 8.1 101090 100
2005-03-30 07:37:55 51°21.102 3°2.793 10.8 12 8.1 101090 100
2005-03-30 07:37:58 51°21.107 3°2.81 10.7 12 8.1 101080 100
2005-03-30 07:38:05 51°21.115 3°2.843 10.6 11 8.1 101080 100
2005-03-30 07:38:10 51°21.121 3°2.868 10.9 12 8.1 101080 100
2005-03-30 07:38:14 51°21.126 3°2.892 10.5 11 8.1 101080 100
2005-03-30 07:38:18 51°21.131 3°2.912 10.7 12 8.1 101080 100
2005-03-30 07:38:24 51°21.139 3°2.943 10.8 12 8.1 101080 100
2005-03-30 07:38:30 51°21.146 3°2.972 11.1 13 8.1 101080 100
2005-03-30 07:38:34 51°21.151 3°2.995 10.9 11 8.1 101080 100
2005-03-30 07:38:40 51°21.158 3°3.022 11.1 11 8.1 101080 100
2005-03-30 07:38:44 51°21.164 3°3.045 10.8 11 8.1 101080 100
2005-03-30 07:38:49 51°21.17 3°3.07 11.1 11 8 101090 100
2005-03-30 07:38:54 51°21.176 3°3.096 10.9 13 8 101090 100
2005-03-30 07:38:59 51°21.183 3°3.121 11.2 11 8 101080 100
2005-03-30 07:39:05 51°21.189 3°3.149 11.3 11 8 101080 100
2005-03-30 07:39:09 51°21.194 3°3.169 10.9 12 8 101090 100
2005-03-30 07:39:14 51°21.201 3°3.196 11.4 11 8 101090 100
2005-03-30 07:39:18 51°21.206 3°3.217 11 11 8.1 101090 100
2005-03-30 07:39:25 51°21.214 3°3.249 11.4 10 8.1 101090 100
2005-03-30 07:39:29 51°21.218 3°3.27 11.1 11 8.1 101090 100
2005-03-30 07:39:34 51°21.224 3°3.298 11.4 10 8.1 101090 100
2005-03-30 07:39:39 51°21.23 3°3.324 11.4 11 8.1 101080 100
2005-03-30 07:39:44 51°21.235 3°3.35 11.2 11 8.1 101080 100
2005-03-30 07:39:49 51°21.24 3°3.373 11.7 10 8 101080 100
2005-03-30 07:39:54 51°21.246 3°3.401 11.7 11 8 101080 100
2005-03-30 07:39:58 51°21.25 3°3.422 11.4 12 8.1 101080 100
2005-03-30 07:40:04 51°21.257 3°3.453 11.4 11 8.1 101080 100
2005-03-30 07:40:10 51°21.263 3°3.481 11.6 12 8 101080 100
2005-03-30 07:40:14 51°21.268 3°3.504 11.7 12 8 101080 100
2005-03-30 07:40:19 51°21.273 3°3.53 11.8 10 8.1 101080 100
2005-03-30 07:40:24 51°21.278 3°3.555 11.5 12 8.1 101080 100
2005-03-30 07:40:29 51°21.283 3°3.579 11.5 10 8.1 101080 100
2005-03-30 07:40:35 51°21.289 3°3.61 11.8 10 8.1 101080 100
2005-03-30 07:40:38 51°21.293 3°3.628 11.8 13 8.1 101090 100
2005-03-30 07:40:44 51°21.299 3°3.658 11.4 13 8.1 101090 100
2005-03-30 07:40:50 51°21.306 3°3.687 11.5 11 8.1 101080 100
2005-03-30 07:40:54 51°21.311 3°3.71 11.7 11 8.1 101080 100
2005-03-30 07:40:59 51°21.316 3°3.736 11.6 12 8.1 101080 100
2005-03-30 07:41:04 51°21.321 3°3.761 11.4 11 8.1 101080 100
2005-03-30 07:41:09 51°21.326 3°3.785 11.2 12 8.1 101080 100
2005-03-30 07:41:14 51°21.332 3°3.813 11.5 12 8.1 101080 100
2005-03-30 07:41:19 51°21.337 3°3.839 11.6 13 8.1 101080 100
2005-03-30 07:41:25 51°21.343 3°3.867 11.6 13 8.1 101080 100
2005-03-30 07:41:29 51°21.348 3°3.89 11.4 12 8.1 101080 100
2005-03-30 07:41:35 51°21.354 3°3.919 11.5 12 8.1 101080 100
2005-03-30 07:41:38 51°21.357 3°3.936 11.5 13 8 101080 100
2005-03-30 07:41:44 51°21.364 3°3.967 11.2 13 8 101080 100
2005-03-30 07:41:49 51°21.369 3°3.99 11.3 10 8.1 101080 100
2005-03-30 07:41:55 51°21.375 3°4.022 11.1 12 8.1 101080 100
2005-03-30 07:42:00 51°21.38 3°4.047 11.1 12 8.1 101090 100
2005-03-30 07:42:05 51°21.386 3°4.072 11.1 13 8.1 101090 100
2005-03-30 07:42:10 51°21.391 3°4.098 10.9 12 8.1 101090 100
2005-03-30 07:42:14 51°21.396 3°4.121 11 11 8.1 101090 100
2005-03-30 07:42:20 51°21.401 3°4.149 10.9 13 8.1 101080 100
2005-03-30 07:42:24 51°21.406 3°4.173 11.4 12 8.1 101080 100
2005-03-30 07:42:30 51°21.412 3°4.201 11.5 13 8.1 101080 100
2005-03-30 07:42:35 51°21.418 3°4.227 11.1 10 8.1 101080 100
2005-03-30 07:42:38 51°21.421 3°4.245 11.5 13 8.1 101080 100
2005-03-30 07:42:44 51°21.428 3°4.275 11.2 13 8.1 101080 100
2005-03-30 07:42:49 51°21.433 3°4.301 11.1 13 8.1 101080 100
2005-03-30 07:42:54 51°21.438 3°4.327 11.4 14 8.1 101080 100
2005-03-30 07:42:59 51°21.444 3°4.353 10.9 13 8.1 101080 100
2005-03-30 07:43:04 51°21.449 3°4.378 11.2 14 8.1 101080 100
2005-03-30 07:43:09 51°21.455 3°4.404 10.8 13 8.1 101080 100
2005-03-30 07:43:14 51°21.46 3°4.429 11.1 12 8.1 101080 100
2005-03-30 07:43:19 51°21.465 3°4.455 11.2 12 8.1 101090 100
2005-03-30 07:43:24 51°21.471 3°4.48 11 13 8.1 101090 100
2005-03-30 07:43:29 51°21.476 3°4.506 11.2 11 8.2 101090 100
2005-03-30 07:43:35 51°21.482 3°4.535 10.8 13 8.2 101090 100
2005-03-30 07:43:39 51°21.487 3°4.555 10.8 12 8.2 101090 100
2005-03-30 07:43:44 51°21.493 3°4.582 10.8 11 8.2 101090 100
2005-03-30 07:43:49 51°21.498 3°4.608 10.6 13 8.2 101090 100
2005-03-30 07:43:54 51°21.503 3°4.633 10.6 10 8.2 101090 100
2005-03-30 07:43:59 51°21.508 3°4.657 11 12 8.2 101090 100
2005-03-30 07:44:05 51°21.514 3°4.687 10.6 13 8.2 101090 100
2005-03-30 07:44:09 51°21.519 3°4.71 10.7 12 8.2 101090 100
2005-03-30 07:44:14 51°21.524 3°4.736 10.6 11 8.2 101090 100
2005-03-30 07:44:20 51°21.53 3°4.764 10.6 12 8.2 101090 100
2005-03-30 07:44:24 51°21.535 3°4.787 10.4 11 8.2 101090 100
2005-03-30 07:44:29 51°21.54 3°4.812 10.3 11 8.2 101090 100
2005-03-30 07:44:34 51°21.546 3°4.838 10.5 10 8.2 101090 100
2005-03-30 07:44:39 51°21.551 3°4.864 10.5 12 8.2 101090 100
2005-03-30 07:44:45 51°21.557 3°4.891 10.3 10 8.2 101090 100
2005-03-30 07:44:49 51°21.561 3°4.912 10.5 11 8.2 101100 100
2005-03-30 07:44:54 51°21.567 3°4.94 10.3 12 8.2 101100 100
2005-03-30 07:44:59 51°21.572 3°4.963 10.6 11 8.2 101090 100
2005-03-30 07:45:05 51°21.578 3°4.993 10.5 12 8.2 101090 100
2005-03-30 07:45:10 51°21.584 3°5.019 10.5 12 8.2 101090 100
2005-03-30 07:45:14 51°21.588 3°5.042 10.4 12 8.2 101090 100
2005-03-30 07:45:19 51°21.594 3°5.067 10.3 11 8.1 101090 100
2005-03-30 07:45:25 51°21.599 3°5.095 10.5 12 8.1 101090 100
2005-03-30 07:45:29 51°21.604 3°5.118 10.3 12 8.1 101090 100
2005-03-30 07:45:34 51°21.609 3°5.144 10.5 12 8.1 101090 100
2005-03-30 07:45:40 51°21.615 3°5.172 10.4 10 8.2 101090 100
2005-03-30 07:45:44 51°21.619 3°5.195 10.4 12 8.2 101090 100
2005-03-30 07:45:49 51°21.624 3°5.221 10.2 13 8.1 101090 100
2005-03-30 07:45:55 51°21.63 3°5.249 10.5 13 8.1 101090 100
2005-03-30 07:45:58 51°21.633 3°5.266 10.2 13 8.1 101090 100
2005-03-30 07:46:05 51°21.641 3°5.299 10 12 8.1 101090 100
2005-03-30 07:46:09 51°21.645 3°5.319 10 12 8.1 101090 100
2005-03-30 07:46:14 51°21.651 3°5.347 10.4 11 8.1 101090 100
2005-03-30 07:46:20 51°21.657 3°5.375 9.8 13 8.1 101090 100
2005-03-30 07:46:24 51°21.661 3°5.398 10 12 8.1 101090 100
2005-03-30 07:46:29 51°21.666 3°5.423 10.3 12 8.1 101090 100
2005-03-30 07:46:34 51°21.672 3°5.448 10.5 15 8.1 101090 100
2005-03-30 07:46:39 51°21.676 3°5.472 10.5 11 8.1 101100 100
2005-03-30 07:46:45 51°21.682 3°5.501 10.3 13 8.1 101100 100
2005-03-30 07:46:49 51°21.686 3°5.521 10.4 12 8.1 101090 100
2005-03-30 07:46:54 51°21.692 3°5.549 10.3 13 8.1 101090 100
2005-03-30 07:46:58 51°21.696 3°5.569 10.5 11 8.1 101090 100
2005-03-30 07:47:05 51°21.703 3°5.602 10.3 11 8.1 101090 100
2005-03-30 07:47:09 51°21.707 3°5.622 10.3 11 8.1 101100 100
2005-03-30 07:47:14 51°21.712 3°5.647 10.6 9 8.1 101100 100
2005-03-30 07:47:19 51°21.717 3°5.675 10.8 13 8.1 101100 100
2005-03-30 07:47:25 51°21.723 3°5.702 10.8 12 8.1 101100 100
2005-03-30 07:47:29 51°21.727 3°5.725 10.9 11 8.1 101090 100
2005-03-30 07:47:35 51°21.733 3°5.753 10.8 11 8.1 101090 100
2005-03-30 07:47:38 51°21.736 3°5.77 10.6 12 8.1 101090 100
2005-03-30 07:47:45 51°21.743 3°5.802 10.6 11 8.1 101090 100
2005-03-30 07:47:50 51°21.748 3°5.828 10.6 11 8.1 101100 100
2005-03-30 07:47:54 51°21.753 3°5.85 10.5 11 8.1 101100 100
2005-03-30 07:48:00 51°21.759 3°5.878 10.6 12 8.1 101100 100
2005-03-30 07:48:05 51°21.764 3°5.902 10.8 12 8.1 101100 100
2005-03-30 07:48:10 51°21.769 3°5.927 10.4 10 8.1 101100 100
2005-03-30 07:48:14 51°21.774 3°5.95 10.9 10 8.1 101100 100
2005-03-30 07:48:19 51°21.779 3°5.975 10.4 9 8.1 101100 100
2005-03-30 07:48:24 51°21.784 3°6 11 10 8.1 101100 100
2005-03-30 07:48:29 51°21.789 3°6.023 11.1 9 8.1 101100 100
2005-03-30 07:48:35 51°21.794 3°6.052 10.5 8 8.1 101100 100
2005-03-30 07:48:38 51°21.797 3°6.069 10.8 11 8.1 101100 100
2005-03-30 07:48:44 51°21.804 3°6.099 11.1 12 8.1 101100 100
2005-03-30 07:48:49 51°21.809 3°6.125 10.8 12 8.1 101100 100
2005-03-30 07:48:54 51°21.814 3°6.149 10.7 12 8.1 101100 100
2005-03-30 07:48:59 51°21.819 3°6.175 11 13 8.1 101100 100
2005-03-30 07:49:04 51°21.825 3°6.199 11.3 13 8.1 101100 100
2005-03-30 07:49:08 51°21.829 3°6.219 11 12 8.1 101100 100
2005-03-30 07:49:15 51°21.836 3°6.252 10.7 12 8.1 101100 100
2005-03-30 07:49:20 51°21.842 3°6.276 11 10 8.1 101100 100
2005-03-30 07:49:24 51°21.846 3°6.299 11.2 11 8.1 101100 100
2005-03-30 07:49:28 51°21.85 3°6.319 11 12 8.1 101090 100
2005-03-30 07:49:34 51°21.855 3°6.349 11 11 8.1 101090 100
2005-03-30 07:49:39 51°21.859 3°6.372 11 12 8.1 101100 100
2005-03-30 07:49:44 51°21.864 3°6.399 11.2 12 8.1 101100 100
2005-03-30 07:49:49 51°21.867 3°6.422 11.1 11 8.1 101100 100
2005-03-30 07:49:54 51°21.872 3°6.45 11.2 11 8.1 101100 100
2005-03-30 07:50:00 51°21.876 3°6.478 11.3 11 8.1 101090 100
2005-03-30 07:50:05 51°21.88 3°6.503 11.2 11 8.1 101090 100
2005-03-30 07:50:09 51°21.883 3°6.523 11.2 11 8.1 101090 100
2005-03-30 07:50:15 51°21.888 3°6.554 10.8 11 8.1 101090 100
2005-03-30 07:50:19 51°21.89 3°6.575 11.1 13 8.1 101100 100
2005-03-30 07:50:25 51°21.895 3°6.605 11 11 8.1 101100 100
2005-03-30 07:50:29 51°21.897 3°6.625 10.6 13 8.1 101100 100
2005-03-30 07:50:35 51°21.901 3°6.656 10.7 13 8.1 101100 100
2005-03-30 07:50:40 51°21.905 3°6.681 10.8 11 8.1 101100 100
2005-03-30 07:50:45 51°21.908 3°6.706 10.8 12 8.1 101100 100
2005-03-30 07:50:49 51°21.91 3°6.727 10.9 12 8.1 101100 100
2005-03-30 07:50:54 51°21.913 3°6.754 10.8 13 8.1 101100 100
2005-03-30 07:51:00 51°21.916 3°6.782 10.6 12 8.1 101100 100
2005-03-30 07:51:04 51°21.919 3°6.804 10.6 14 8.1 101100 100
2005-03-30 07:51:10 51°21.923 3°6.832 10.4 12 8.1 101100 100
2005-03-30 07:51:14 51°21.926 3°6.854 10.3 11 8.1 101100 100
2005-03-30 07:51:20 51°21.93 3°6.881 10.6 13 8.1 101100 100
2005-03-30 07:51:25 51°21.934 3°6.906 10.5 13 8.1 101100 100
2005-03-30 07:51:29 51°21.937 3°6.926 10.7 11 8.1 101100 100
2005-03-30 07:51:35 51°21.942 3°6.956 10.7 12 8.1 101100 100
2005-03-30 07:51:38 51°21.945 3°6.972 10.3 10 8.1 101100 100
2005-03-30 07:51:45 51°21.95 3°7.004 10.7 9 8.1 101100 100
2005-03-30 07:51:49 51°21.953 3°7.026 10.6 10 8.1 101100 100
2005-03-30 07:51:54 51°21.954 3°7.051 10.4 9 8.1 101100 100
2005-03-30 07:51:59 51°21.956 3°7.076 10.4 8 8.1 101100 100
2005-03-30 07:52:05 51°21.958 3°7.103 10.8 9 8.1 101100 100
2005-03-30 07:52:10 51°21.959 3°7.128 10.5 8 8.1 101100 100
2005-03-30 07:52:14 51°21.96 3°7.15 11.1 7 8.1 101100 100
2005-03-30 07:52:19 51°21.961 3°7.175 10.2 7 8.1 101100 100
2005-03-30 07:52:25 51°21.962 3°7.202 10.4 10 8.1 101100 100
2005-03-30 07:52:29 51°21.963 3°7.225 10.9 10 8.1 101100 100
2005-03-30 07:52:35 51°21.965 3°7.253 10.9 10 8.1 101100 100
2005-03-30 07:52:39 51°21.966 3°7.274 10.7 10 8.1 101100 100
2005-03-30 07:52:45 51°21.968 3°7.302 10.7 9 8.1 101100 100
2005-03-30 07:52:50 51°21.969 3°7.326 10.8 11 8.1 101100 100
2005-03-30 07:52:54 51°21.97 3°7.348 11.2 11 8.1 101100 100
2005-03-30 07:52:59 51°21.971 3°7.374 10.7 11 8.1 101100 100
2005-03-30 07:53:04 51°21.972 3°7.398 10.9 10 8.1 101100 100
2005-03-30 07:53:09 51°21.973 3°7.421 11.1 11 8.1 101100 100
2005-03-30 07:53:14 51°21.975 3°7.448 11 10 8.1 101100 100
2005-03-30 07:53:19 51°21.976 3°7.471 11 11 8.1 101130 100
2005-03-30 07:53:24 51°21.978 3°7.497 10.8 11 8.1 101130 100
2005-03-30 07:53:29 51°21.979 3°7.519 11 11 8.1 101100 100
2005-03-30 07:53:34 51°21.98 3°7.547 11.1 11 8.1 101100 100
2005-03-30 07:53:39 51°21.982 3°7.57 10.8 10 8.1 101110 100
2005-03-30 07:53:45 51°21.983 3°7.599 11.2 11 8.1 101110 100
2005-03-30 07:53:49 51°21.984 3°7.618 10.6 12 8.1 101110 100
2005-03-30 07:53:55 51°21.985 3°7.649 11 10 8.1 101110 100
2005-03-30 07:53:58 51°21.986 3°7.665 11 12 8.1 101100 100
2005-03-30 07:54:05 51°21.987 3°7.697 10.7 11 8.1 101100 100
2005-03-30 07:54:10 51°21.988 3°7.722 10.7 12 8.2 101130 100
2005-03-30 07:54:14 51°21.989 3°7.744 11.1 12 8.2 101130 100
2005-03-30 07:54:20 51°21.991 3°7.772 10.7 10 8.1 101110 100
2005-03-30 07:54:24 51°21.992 3°7.794 10.7 11 8.1 101110 100
2005-03-30 07:54:29 51°21.993 3°7.819 10.9 12 8.1 101130 100
2005-03-30 07:54:34 51°21.994 3°7.843 10.6 13 8.1 101130 100
2005-03-30 07:54:39 51°21.994 3°7.869 11.1 13 8.1 101110 100
2005-03-30 07:54:44 51°21.996 3°7.893 10.5 11 8.1 101110 100
2005-03-30 07:54:49 51°21.996 3°7.918 10.9 13 8.1 101110 100
2005-03-30 07:54:55 51°21.996 3°7.946 4.4 11 8.1 101110 100
2005-03-30 07:54:58 51°21.997 3°7.962 10.8 11 8.1 101110 100
2005-03-30 07:55:05 51°21.999 3°7.995 10.7 11 8.1 101110 100
2005-03-30 07:55:09 51°21.999 3°8.015 10.8 13 8.1 101130 100
2005-03-30 07:55:14 51°22.001 3°8.042 10.2 13 8.1 101130 100
2005-03-30 07:55:19 51°22.001 3°8.065 10.5 13 8.1 101110 100
2005-03-30 07:55:25 51°22.003 3°8.094 10.9 11 8.1 101110 100
2005-03-30 07:55:29 51°22.004 3°8.116 10.6 13 8.1 101110 100
2005-03-30 07:55:34 51°22.005 3°8.141 10.7 12 8.1 101110 100
2005-03-30 07:55:39 51°22.007 3°8.166 10.6 13 8.1 101110 100
2005-03-30 07:55:44 51°22.008 3°8.191 11 12 8.1 101110 100
2005-03-30 07:55:50 51°22.009 3°8.219 10.5 14 8.1 101110 100
2005-03-30 07:55:54 51°22.011 3°8.241 10.4 11 8.1 101110 100
2005-03-30 07:56:00 51°22.012 3°8.269 10.6 15 8.1 101100 100
2005-03-30 07:56:05 51°22.014 3°8.294 10.4 13 8.1 101100 100
2005-03-30 07:56:09 51°22.015 3°8.316 10.2 13 8.1 101100 100
2005-03-30 07:56:14 51°22.017 3°8.342 10.3 11 8.1 101100 100
2005-03-30 07:56:20 51°22.018 3°8.369 10.2 14 8.1 101110 100
2005-03-30 07:56:25 51°22.02 3°8.394 10.2 12 8.1 101110 100
2005-03-30 07:56:29 51°22.021 3°8.417 10 13 8.1 101110 100
2005-03-30 07:56:34 51°22.022 3°8.442 10.3 12 8.1 101110 100
2005-03-30 07:56:39 51°22.024 3°8.465 10.3 12 8.1 101100 100
2005-03-30 07:56:44 51°22.025 3°8.492 10.1 13 8.1 101100 100
2005-03-30 07:56:49 51°22.026 3°8.517 10.2 12 8.1 101110 100
2005-03-30 07:56:54 51°22.027 3°8.543 10.4 11 8.1 101110 100
2005-03-30 07:57:00 51°22.029 3°8.57 10.3 10 8.1 101110 100
2005-03-30 07:57:04 51°22.031 3°8.593 9.9 11 8.1 101110 100
2005-03-30 07:57:10 51°22.032 3°8.62 10.6 14 8.2 101110 100
2005-03-30 07:57:14 51°22.034 3°8.643 10.7 12 8.2 101110 100
2005-03-30 07:57:18 51°22.035 3°8.663 10.8 11 8.1 101110 100